Oelwein, IA

5:43 PM CDT on October 18, 2017 (GMT -0500)
Oelwein Municipal

Weather History for KOLZ - March, 2013

Change the Weather History Date:

Sunday, March 3, 2013

  Actual Average Record
Temperature  
Mean Temperature 16 °F -  
Max Temperature 30 °F 38 °F 68 °F (1983)
Min Temperature 1 °F 22 °F -13 °F (2014)
Degree Days  
Heating Degree Days 50    
Moisture  
Dew Point 11 °F    
Average Humidity 69    
Maximum Humidity 92    
Minimum Humidity 47    
Precipitation  
Precipitation 0.00 in - - ()
Sea Level Pressure  
Sea Level Pressure 30.07 in    
Wind  
Wind Speed 2 mph (SE)    
Max Wind Speed 16 mph    
Max Gust Speed -    
Visibility 10 miles    
Events      
Averages and records for this station are not official NWS values.
T = Trace of Precipitation, MM = Missing Value Source: NWS Daily Summary

Daily Weather History Graph

Daily Weather History Graph

Search for Another Location

Airport or City:

Trip Planner

Search our weather history database for the weather conditions in past years. The results will help you decide how hot, cold, wet, or windy it might be!

Date:

Astronomy

Mar. 03, 2013 Rise Set
Actual Time 6:39 AM CST 6:00 PM CST
Civil Twilight 6:11 AM CST 6:28 PM CST
Nautical Twilight 5:38 AM CST 7:01 PM CST
Astronomical Twilight 5:06 AM CST 7:34 PM CST
Moon No Moon Rise 9:46 AM CST (3/3)
Length of Visible Light 12h 16m
Length of Day
11h 20m
Waning Gibbous, 63% of the Moon is Illuminated
Mar 3
Waning Gibbous
Mar 4
Last Quarter
Mar 11
New
Mar 19
First Quarter
Mar 27
Full

Hourly Weather History & Observations

Time (CST) Temp. Windchill Dew Point Humidity Pressure Visibility Wind Dir Wind Speed Gust Speed Precip Events Conditions
12:15 AM 8.6 °F - 5.0 °F 85% 30.16 in 10.0 mi Calm Calm - N/A   Scattered Clouds
12:35 AM 5.0 °F - 1.4 °F 85% 30.16 in 7.0 mi Calm Calm - N/A   Clear
12:55 AM 6.8 °F - 1.4 °F 79% 30.15 in 10.0 mi Calm Calm - N/A   Clear
1:15 AM 8.6 °F - 5.0 °F 85% 30.16 in 10.0 mi Calm Calm - N/A   Clear
1:35 AM 8.6 °F - 3.2 °F 79% 30.15 in 7.0 mi Calm Calm - N/A   Clear
1:55 AM 8.6 °F - 5.0 °F 85% 30.14 in 7.0 mi Calm Calm - N/A   Clear
2:15 AM 8.6 °F - 5.0 °F 85% 30.14 in 10.0 mi Calm Calm - N/A   Clear
2:35 AM 5.0 °F - 1.4 °F 85% 30.13 in 10.0 mi Calm Calm - N/A   Clear
3:15 AM 1.4 °F - -4.0 °F 78% 30.12 in 7.0 mi Calm Calm - N/A   Clear
3:35 AM 1.4 °F - -4.0 °F 78% 30.12 in 10.0 mi Calm Calm - N/A   Clear
3:55 AM 5.0 °F - 1.4 °F 85% 30.12 in 10.0 mi Calm Calm - N/A   Clear
4:15 AM 5.0 °F - 1.4 °F 85% 30.11 in 10.0 mi Calm Calm - N/A   Clear
4:35 AM 6.8 °F - 3.2 °F 85% 30.11 in 10.0 mi Calm Calm - N/A   Clear
4:55 AM 8.6 °F - 5.0 °F 85% 30.11 in 10.0 mi Calm Calm - N/A   Clear
5:15 AM 8.6 °F - 5.0 °F 85% 30.12 in 10.0 mi Calm Calm - N/A   Scattered Clouds
5:35 AM 8.6 °F - 5.0 °F 85% 30.11 in 10.0 mi Calm Calm - N/A   Scattered Clouds
5:55 AM 8.6 °F - 5.0 °F 85% 30.12 in 10.0 mi Calm Calm - N/A   Scattered Clouds
6:15 AM 10.4 °F -0.4 °F 8.6 °F 92% 30.11 in 10.0 mi East 6.9 mph - N/A   Scattered Clouds
6:35 AM 12.2 °F - 8.6 °F 85% 30.11 in 10.0 mi Calm Calm - N/A   Mostly Cloudy
6:55 AM 12.2 °F - 8.6 °F 85% 30.11 in 10.0 mi Calm Calm - N/A   Mostly Cloudy
7:15 AM 14.0 °F - 10.4 °F 86% 30.11 in 10.0 mi Calm Calm - N/A   Scattered Clouds
7:35 AM 14.0 °F - 10.4 °F 86% 30.12 in 10.0 mi Calm Calm - N/A   Scattered Clouds
7:55 AM 15.8 °F - 12.2 °F 86% 30.12 in 10.0 mi Calm Calm - N/A   Scattered Clouds
8:15 AM 15.8 °F - 12.2 °F 86% 30.12 in 10.0 mi Calm Calm - N/A   Scattered Clouds
8:35 AM 17.6 °F - 12.2 °F 79% 30.11 in 10.0 mi Calm Calm - N/A   Scattered Clouds
8:55 AM 19.4 °F - 14.0 °F 80% 30.11 in 10.0 mi Calm Calm - N/A   Scattered Clouds
9:15 AM 21.2 °F - 15.8 °F 80% 30.11 in 10.0 mi Calm Calm - N/A   Scattered Clouds
9:35 AM 23.0 °F - 14.0 °F 68% 30.10 in 10.0 mi Calm Calm - N/A   Scattered Clouds
9:55 AM 24.8 °F - 14.0 °F 64% 30.09 in 10.0 mi Calm Calm - N/A   Scattered Clouds
10:15 AM 26.6 °F - 14.0 °F 59% 30.09 in 10.0 mi Calm Calm - N/A   Scattered Clouds
10:35 AM 26.6 °F - 14.0 °F 59% 30.09 in 10.0 mi Calm Calm - N/A   Scattered Clouds
10:55 AM 26.6 °F - 12.2 °F 55% 30.09 in 10.0 mi Calm Calm - N/A   Scattered Clouds
11:15 AM 26.6 °F - 12.2 °F 55% 30.09 in 10.0 mi Calm Calm - N/A   Scattered Clouds
11:35 AM 26.6 °F - 12.2 °F 55% 30.09 in 10.0 mi Calm Calm - N/A   Scattered Clouds
11:55 AM 28.4 °F - 14.0 °F 55% 30.09 in 10.0 mi Calm Calm - N/A   Scattered Clouds
12:15 PM 28.4 °F 23.3 °F 14.0 °F 55% 30.08 in 10.0 mi SSE 4.6 mph - N/A   Scattered Clouds
12:35 PM 28.4 °F - 14.0 °F 55% 30.07 in 10.0 mi Calm Calm - N/A   Clear
12:55 PM 28.4 °F - 14.0 °F 55% 30.06 in 10.0 mi Calm Calm - N/A   Clear
1:15 PM 28.4 °F 19.7 °F 14.0 °F 55% 30.06 in 10.0 mi SSE 9.2 mph - N/A   Clear
1:35 PM 28.4 °F 19.1 °F 14.0 °F 55% 30.05 in 10.0 mi ESE 10.4 mph - N/A   Clear
1:55 PM 28.4 °F 19.1 °F 14.0 °F 55% 30.04 in 10.0 mi SE 10.4 mph - N/A   Clear
2:15 PM 30.2 °F - 14.0 °F 51% 30.03 in 10.0 mi Calm Calm - N/A   Clear
2:35 PM 30.2 °F 20.8 °F 14.0 °F 51% 30.03 in 10.0 mi SE 11.5 mph - N/A   Clear
2:55 PM 30.2 °F 20.8 °F 12.2 °F 47% 30.03 in 10.0 mi SE 11.5 mph - N/A   Clear
3:15 PM 30.2 °F 24.3 °F 14.0 °F 51% 30.03 in 10.0 mi SE 5.8 mph - N/A   Clear
3:55 PM 28.4 °F 18.5 °F 14.0 °F 55% 30.02 in 10.0 mi ESE 11.5 mph - N/A   Clear
4:15 PM 28.4 °F 18.5 °F 14.0 °F 55% 30.01 in 10.0 mi ESE 11.5 mph - N/A   Clear
4:35 PM 28.4 °F 18.5 °F 15.8 °F 59% 30.01 in 10.0 mi ESE 11.5 mph - N/A   Clear
4:55 PM 26.6 °F 17.5 °F 14.0 °F 59% 30.01 in 10.0 mi ESE 9.2 mph - N/A   Clear
5:15 PM 26.6 °F - 14.0 °F 59% 30.01 in 10.0 mi Calm Calm - N/A   Clear
5:35 PM 24.8 °F - 12.2 °F 59% 30.01 in 10.0 mi Calm Calm - N/A   Clear
5:55 PM 23.0 °F 13.1 °F 12.2 °F 63% 30.01 in 10.0 mi ESE 9.2 mph - N/A   Clear
6:35 PM 21.2 °F 13.6 °F 12.2 °F 68% 30.01 in 10.0 mi ESE 5.8 mph - N/A   Clear
6:55 PM 21.2 °F 11.7 °F 12.2 °F 68% 30.01 in 10.0 mi ESE 8.1 mph - N/A   Clear
7:15 PM 21.2 °F 10.1 °F 12.2 °F 68% 30.00 in 10.0 mi ESE 10.4 mph - N/A   Clear
7:35 PM 23.0 °F 13.1 °F 14.0 °F 68% 30.00 in 10.0 mi ESE 9.2 mph - N/A   Clear
7:55 PM 23.0 °F - 14.0 °F 68% 30.01 in 10.0 mi Calm Calm - N/A   Clear
8:15 PM 24.8 °F - 15.8 °F 69% 30.00 in 10.0 mi Calm Calm - N/A   Clear
8:35 PM 26.6 °F - 15.8 °F 64% 30.01 in 10.0 mi Calm Calm - N/A   Clear
8:55 PM 26.6 °F - 15.8 °F 64% 30.01 in 10.0 mi Calm Calm - N/A   Clear
9:15 PM 26.6 °F 22.6 °F 15.8 °F 64% 30.01 in 10.0 mi SE 3.5 mph - N/A   Clear
9:35 PM 26.6 °F 15.7 °F 15.8 °F 64% 30.00 in 10.0 mi SE 12.7 mph - N/A   Clear
9:55 PM 26.6 °F 14.7 °F 15.8 °F 64% 29.99 in 10.0 mi ESE 15.0 mph - N/A   Clear
10:15 PM 26.6 °F 15.2 °F 15.8 °F 64% 29.99 in 10.0 mi ESE 13.8 mph - N/A   Clear
10:35 PM 26.6 °F 14.7 °F 14.0 °F 59% 29.99 in 10.0 mi ESE 15.0 mph - N/A   Clear
10:55 PM 26.6 °F 14.7 °F 14.0 °F 59% 29.99 in 10.0 mi ESE 15.0 mph - N/A   Clear
11:15 PM 26.6 °F 15.7 °F 14.0 °F 59% 30.00 in 10.0 mi SE 12.7 mph - N/A   Clear
11:35 PM 26.6 °F 14.3 °F 15.8 °F 64% 30.00 in 10.0 mi SE 16.1 mph - N/A   Clear
11:55 PM 26.6 °F 15.2 °F 15.8 °F 64% 30.01 in 10.0 mi SE 13.8 mph - N/A   Clear